AAL1453 KDFW-TJSJ

Flight info

Callsign AAL1453
Flight time N/A
Altitude 37000
Route MRSSH3 ZALEA DCT HRV Q105 BLVNS Y290 BITAC/N0449F390 Y290 BEANO RTE6 SJU
Aircraft B38M/M-SDE1FGHILORVWXY/HB1

Departure

Time 2026-05-03 20:15
Airport Dallas Fort Worth International Airport (KDFW)

Arrival

Time N/A
Airport Luis Munoz Marin International Airport (TJSJ)
Time Latitude Longitude Altitude Speed Heading
2026-05-03 20:15 32.80206 -97.02953 4609 ft 249 kts 182°
2026-05-03 20:15 32.78455 -97.02954 5552 ft 256 kts 183°
2026-05-03 20:15 32.76681 -97.02972 6118 ft 275 kts 183°
2026-05-03 20:15 32.74705 -97.02986 6641 ft 294 kts 182°
2026-05-03 20:16 32.72647 -97.02665 7247 ft 311 kts 160°
2026-05-03 20:16 32.70849 -97.01206 8110 ft 319 kts 132°
2026-05-03 20:16 32.69769 -96.98890 8852 ft 330 kts 105°
2026-05-03 20:16 32.69294 -96.96278 9760 ft 331 kts 104°
2026-05-03 20:17 32.68823 -96.93579 10493 ft 337 kts 94°
2026-05-03 20:17 32.68850 -96.90799 11286 ft 341 kts 88°
2026-05-03 20:17 32.68912 -96.87900 11567 ft 361 kts 88°
2026-05-03 20:17 32.68964 -96.84932 11762 ft 381 kts 88°
2026-05-03 20:18 32.69016 -96.81741 11957 ft 398 kts 88°
2026-05-03 20:18 32.69068 -96.78417 12359 ft 407 kts 88°
2026-05-03 20:18 32.69119 -96.75067 13082 ft 407 kts 88°
2026-05-03 20:18 32.69170 -96.71675 13609 ft 413 kts 88°
2026-05-03 20:19 32.69220 -96.68268 14258 ft 415 kts 88°
2026-05-03 20:19 32.69269 -96.64840 14792 ft 419 kts 88°
2026-05-03 20:19 32.69317 -96.61394 15364 ft 421 kts 88°
2026-05-03 20:19 32.69366 -96.57897 15905 ft 425 kts 88°
2026-05-03 20:20 32.69413 -96.54383 16434 ft 428 kts 87°
2026-05-03 20:20 32.69459 -96.50901 16905 ft 431 kts 87°
2026-05-03 20:20 32.69506 -96.47319 17420 ft 434 kts 87°
2026-05-03 20:20 32.69552 -96.43728 17871 ft 437 kts 87°
2026-05-03 20:21 32.69596 -96.40098 18349 ft 440 kts 87°
2026-05-03 20:21 32.69640 -96.36536 18779 ft 443 kts 87°
2026-05-03 20:21 32.69595 -96.32855 19168 ft 449 kts 93°
2026-05-03 20:21 32.69322 -96.29224 19592 ft 452 kts 93°
2026-05-03 20:22 32.69060 -96.25454 19973 ft 456 kts 92°
2026-05-03 20:22 32.68815 -96.21727 20397 ft 459 kts 92°
2026-05-03 20:22 32.68570 -96.17926 20777 ft 463 kts 92°
2026-05-03 20:22 32.68326 -96.14102 21136 ft 467 kts 92°
2026-05-03 20:23 32.68159 -96.11496 21402 ft 469 kts 92°
2026-05-03 20:23 32.67830 -96.06377 21846 ft 474 kts 92°
2026-05-03 20:23 32.67576 -96.02453 22203 ft 477 kts 92°
2026-05-03 20:23 32.67320 -95.98512 22564 ft 480 kts 92°
2026-05-03 20:24 32.67145 -95.95827 22792 ft 482 kts 92°
2026-05-03 20:24 32.66886 -95.91862 23161 ft 484 kts 92°
2026-05-03 20:24 32.66622 -95.87856 23476 ft 488 kts 92°
2026-05-03 20:24 32.66352 -95.83832 23816 ft 491 kts 92°
2026-05-03 20:25 32.66068 -95.79776 24133 ft 494 kts 92°
2026-05-03 20:25 32.65784 -95.75707 24443 ft 497 kts 92°
2026-05-03 20:25 32.65497 -95.71609 24788 ft 499 kts 92°
2026-05-03 20:25 32.65212 -95.67542 25072 ft 502 kts 92°
2026-05-03 20:26 32.64915 -95.63362 25392 ft 505 kts 92°
2026-05-03 20:26 32.64626 -95.59297 25681 ft 507 kts 92°
2026-05-03 20:26 32.64328 -95.55115 26016 ft 508 kts 92°
2026-05-03 20:26 32.64029 -95.50939 26440 ft 507 kts 92°
2026-05-03 20:27 32.63728 -95.46773 26823 ft 508 kts 92°
2026-05-03 20:27 32.63426 -95.42592 27213 ft 507 kts 92°
2026-05-03 20:27 32.63123 -95.38420 27572 ft 507 kts 92°
2026-05-03 20:27 32.62817 -95.34239 27945 ft 507 kts 92°
2026-05-03 20:28 32.62512 -95.30075 28352 ft 507 kts 92°
2026-05-03 20:28 32.62205 -95.25914 28720 ft 506 kts 92°
2026-05-03 20:28 32.61898 -95.21783 29076 ft 506 kts 92°
2026-05-03 20:28 32.61592 -95.17656 29429 ft 506 kts 92°
2026-05-03 20:29 32.61280 -95.13477 29810 ft 505 kts 92°
2026-05-03 20:29 32.60969 -95.09330 30135 ft 505 kts 92°
2026-05-03 20:29 32.60656 -95.05178 30486 ft 504 kts 92°
2026-05-03 20:29 32.60342 -95.01030 30823 ft 504 kts 92°
2026-05-03 20:30 32.60028 -94.96903 31138 ft 504 kts 92°
2026-05-03 20:30 32.59711 -94.92758 31460 ft 503 kts 92°
2026-05-03 20:30 32.59395 -94.88627 31778 ft 503 kts 92°
2026-05-03 20:30 32.59078 -94.84511 32065 ft 503 kts 92°
2026-05-03 20:31 32.58759 -94.80382 32334 ft 503 kts 93°
2026-05-03 20:31 32.58175 -94.76275 32615 ft 505 kts 106°
2026-05-03 20:31 32.57062 -94.72373 32916 ft 505 kts 107°
2026-05-03 20:31 32.55980 -94.68426 33088 ft 507 kts 107°
2026-05-03 20:32 32.54876 -94.64466 33349 ft 507 kts 107°
2026-05-03 20:32 32.53759 -94.60501 33595 ft 507 kts 107°
2026-05-03 20:32 32.52634 -94.56524 33827 ft 507 kts 107°
2026-05-03 20:32 32.51514 -94.52565 34055 ft 507 kts 107°
2026-05-03 20:33 32.50390 -94.48602 34272 ft 508 kts 107°
2026-05-03 20:33 32.49261 -94.44622 34508 ft 508 kts 108°
2026-05-03 20:33 32.48139 -94.40673 34735 ft 508 kts 108°
2026-05-03 20:33 32.47008 -94.36700 34951 ft 508 kts 108°
2026-05-03 20:34 32.45891 -94.32783 35124 ft 508 kts 108°
2026-05-03 20:34 32.44746 -94.28767 35328 ft 508 kts 108°
2026-05-03 20:34 32.43630 -94.24860 35523 ft 508 kts 108°
2026-05-03 20:34 32.42490 -94.20876 35706 ft 508 kts 108°
2026-05-03 20:35 32.41357 -94.16919 35883 ft 507 kts 108°
2026-05-03 20:35 32.40235 -94.13010 36031 ft 508 kts 108°
2026-05-03 20:35 32.39096 -94.09044 36207 ft 508 kts 109°
2026-05-03 20:35 32.37964 -94.05108 36362 ft 508 kts 109°
2026-05-03 20:36 32.36817 -94.01126 36482 ft 509 kts 109°
2026-05-03 20:36 32.35681 -93.97185 36627 ft 509 kts 109°
2026-05-03 20:36 32.34532 -93.93210 36849 ft 506 kts 109°
2026-05-03 20:36 32.33409 -93.89321 37096 ft 504 kts 109°
2026-05-03 20:37 32.32274 -93.85406 37199 ft 504 kts 109°
2026-05-03 20:37 32.30005 -93.77584 37176 ft 498 kts 109°
2026-05-03 20:38 32.27758 -93.69859 37169 ft 499 kts 109°
2026-05-03 20:38 32.25493 -93.62095 37167 ft 499 kts 110°
2026-05-03 20:39 32.23242 -93.54386 37179 ft 499 kts 110°
2026-05-03 20:39 32.20581 -93.46872 37145 ft 493 kts 128°
2026-05-03 20:40 32.16519 -93.40431 37160 ft 493 kts 129°
2026-05-03 20:40 32.12356 -93.33971 37173 ft 494 kts 130°
2026-05-03 20:41 32.08170 -93.27557 37171 ft 492 kts 130°
2026-05-03 20:41 32.03991 -93.21167 37191 ft 493 kts 130°
2026-05-03 20:42 31.99806 -93.14778 37182 ft 492 kts 130°
2026-05-03 20:42 31.95617 -93.08398 37173 ft 493 kts 131°
2026-05-03 20:43 31.91403 -93.01985 37173 ft 496 kts 131°
2026-05-03 20:43 31.87196 -92.95595 37181 ft 496 kts 131°
2026-05-03 20:44 31.83190 -92.89519 37167 ft 495 kts 132°
2026-05-03 20:44 31.78970 -92.83130 37179 ft 494 kts 132°
2026-05-03 20:45 31.74796 -92.76824 37172 ft 494 kts 132°
2026-05-03 20:45 31.70561 -92.70434 37177 ft 495 kts 132°
2026-05-03 20:46 31.66343 -92.64081 37171 ft 494 kts 133°
2026-05-03 20:46 31.62114 -92.57720 37177 ft 494 kts 132°
2026-05-03 20:47 31.57896 -92.51384 37163 ft 493 kts 133°
2026-05-03 20:47 31.53656 -92.45034 37179 ft 494 kts 133°
2026-05-03 20:48 31.49428 -92.38705 37186 ft 493 kts 133°
2026-05-03 20:48 31.45194 -92.32381 37179 ft 494 kts 133°
2026-05-03 20:49 31.40986 -92.26103 37179 ft 494 kts 133°
2026-05-03 20:49 31.36734 -92.19773 37179 ft 494 kts 133°
2026-05-03 20:50 31.32512 -92.13495 37181 ft 494 kts 133°
2026-05-03 20:50 31.28257 -92.07180 37183 ft 493 kts 133°
2026-05-03 20:51 31.23979 -92.00841 37174 ft 494 kts 133°
2026-05-03 20:51 31.19749 -91.94582 37189 ft 494 kts 134°
2026-05-03 20:52 31.15498 -91.88300 37184 ft 491 kts 134°
2026-05-03 20:52 31.11277 -91.82079 37187 ft 492 kts 134°
2026-05-03 20:53 31.07024 -91.75817 37192 ft 493 kts 135°
2026-05-03 20:53 31.02762 -91.69552 37174 ft 492 kts 135°
2026-05-03 20:54 30.98505 -91.63306 37168 ft 493 kts 135°
2026-05-03 20:54 30.92106 -91.53932 37181 ft 493 kts 135°
2026-05-03 20:55 30.87837 -91.47690 37173 ft 498 kts 135°
2026-05-03 20:55 30.83640 -91.41564 37166 ft 501 kts 135°
2026-05-03 20:56 30.79334 -91.35291 37162 ft 501 kts 135°
2026-05-03 20:56 30.74971 -91.28944 37179 ft 501 kts 135°
2026-05-03 20:57 30.70781 -91.22857 37173 ft 501 kts 135°
2026-05-03 20:57 30.66367 -91.16458 37186 ft 500 kts 136°
2026-05-03 20:58 30.62033 -91.10182 37196 ft 500 kts 136°
2026-05-03 20:58 30.57734 -91.03969 37184 ft 499 kts 136°
2026-05-03 20:59 30.53492 -90.97842 37197 ft 499 kts 136°
2026-05-03 20:59 30.49143 -90.91577 37194 ft 498 kts 136°